AAL1415 CYVR-KDFW

Flight info

Callsign AAL1415
Flight time 3h 18m
Altitude 35000
Route VIBTA DCT NOSOM DCT GEG DCT LKT DCT OCS DCT RLG DCT STAMY DCT PUB DCT EZEEE DCT MDANO JOVEM6
Aircraft A321/M-SDE3FGHIRWY/LB1

Departure

Time 2026-05-07 22:37
Airport Vancouver International Airport (CYVR)

Arrival

Time 2026-05-08 01:56
Airport Dallas Fort Worth International Airport (KDFW)
Time Latitude Longitude Altitude Speed Heading
2026-05-07 22:07 49.19798 -123.17671 15 ft 0 kts 182°
2026-05-07 22:25 49.19804 -123.17670 16 ft 4 kts 181°
2026-05-07 22:26 49.19831 -123.17671 16 ft 4 kts 176°
2026-05-07 22:26 49.19858 -123.17674 16 ft 4 kts 176°
2026-05-07 22:26 49.19884 -123.17673 15 ft 4 kts 195°
2026-05-07 22:26 49.19903 -123.17656 15 ft 4 kts 225°
2026-05-07 22:27 49.19914 -123.17637 16 ft 4 kts 242°
2026-05-07 22:27 49.19921 -123.17599 17 ft 4 kts 272°
2026-05-07 22:27 49.19917 -123.17559 17 ft 4 kts 284°
2026-05-07 22:27 49.19914 -123.17540 18 ft 0 kts 280°
2026-05-07 22:29 49.19916 -123.17557 17 ft 6 kts 280°
2026-05-07 22:29 49.19928 -123.17661 17 ft 12 kts 280°
2026-05-07 22:30 49.19945 -123.17809 15 ft 17 kts 280°
2026-05-07 22:30 49.20030 -123.17834 15 ft 19 kts 339°
2026-05-07 22:30 49.20067 -123.18009 15 ft 21 kts 282°
2026-05-07 22:30 49.20095 -123.18250 15 ft 25 kts 279°
2026-05-07 22:31 49.20109 -123.18486 17 ft 9 kts 218°
2026-05-07 22:31 49.20031 -123.18507 15 ft 14 kts 191°
2026-05-07 22:31 49.19917 -123.18542 15 ft 19 kts 192°
2026-05-07 22:31 49.19775 -123.18584 16 ft 23 kts 207°
2026-05-07 22:32 49.19628 -123.18694 15 ft 26 kts 187°
2026-05-07 22:32 49.19440 -123.18739 15 ft 29 kts 165°
2026-05-07 22:32 49.19334 -123.18695 15 ft 17 kts 192°
2026-05-07 22:32 49.19198 -123.18728 15 ft 21 kts 155°
2026-05-07 22:33 49.19075 -123.18587 17 ft 24 kts 141°
2026-05-07 22:33 49.18947 -123.18403 15 ft 26 kts 97°
2026-05-07 22:33 49.18917 -123.18110 15 ft 29 kts 99°
2026-05-07 22:33 49.18880 -123.17789 15 ft 32 kts 99°
2026-05-07 22:34 49.18842 -123.17437 15 ft 35 kts 99°
2026-05-07 22:34 49.18796 -123.17060 15 ft 37 kts 103°
2026-05-07 22:34 49.18732 -123.16681 15 ft 22 kts 105°
2026-05-07 22:34 49.18729 -123.16640 15 ft 6 kts 84°
2026-05-07 22:35 49.18736 -123.16530 15 ft 14 kts 91°
2026-05-07 22:35 49.18716 -123.16347 17 ft 20 kts 112°
2026-05-07 22:35 49.18636 -123.16160 15 ft 23 kts 96°
2026-05-07 22:35 49.18541 -123.16047 17 ft 23 kts 195°
2026-05-07 22:36 49.18496 -123.16071 18 ft 4 kts 213°
2026-05-07 22:36 49.18481 -123.16138 16 ft 9 kts 276°
2026-05-07 22:36 49.18498 -123.16268 16 ft 20 kts 279°
2026-05-07 22:36 49.18554 -123.16779 13 ft 81 kts 278°
2026-05-07 22:37 49.18675 -123.17915 16 ft 134 kts 273°
2026-05-07 22:37 49.18881 -123.19498 132 ft 161 kts 279°
2026-05-07 22:37 49.19091 -123.21210 620 ft 169 kts 272°
2026-05-07 22:37 49.19194 -123.23020 1209 ft 173 kts 271°
2026-05-07 22:38 49.19046 -123.24894 1609 ft 184 kts 260°
2026-05-07 22:38 49.18719 -123.26854 1968 ft 200 kts 241°
2026-05-07 22:38 49.17727 -123.28387 2182 ft 223 kts 206°
2026-05-07 22:38 49.16103 -123.28733 2513 ft 243 kts 168°
2026-05-07 22:39 49.14585 -123.27519 2962 ft 256 kts 134°
2026-05-07 22:39 49.13733 -123.25142 3590 ft 260 kts 101°
2026-05-07 22:39 49.13626 -123.22415 4305 ft 262 kts 90°
2026-05-07 22:39 49.13580 -123.19630 5046 ft 264 kts 92°
2026-05-07 22:40 49.13461 -123.16823 5766 ft 266 kts 96°
2026-05-07 22:40 49.13280 -123.13996 6487 ft 269 kts 97°
2026-05-07 22:40 49.13057 -123.11151 7149 ft 271 kts 98°
2026-05-07 22:40 49.12809 -123.08268 7800 ft 275 kts 99°
2026-05-07 22:41 49.12544 -123.05358 8436 ft 278 kts 98°
2026-05-07 22:41 49.12270 -123.02421 9116 ft 281 kts 99°
2026-05-07 22:41 49.11988 -122.99457 9786 ft 283 kts 99°
2026-05-07 22:41 49.11700 -122.96463 10301 ft 291 kts 99°
2026-05-07 22:42 49.11394 -122.93320 10565 ft 307 kts 99°
2026-05-07 22:42 49.11069 -122.90003 10790 ft 324 kts 98°
2026-05-07 22:42 49.10726 -122.86518 11032 ft 340 kts 98°
2026-05-07 22:42 49.10368 -122.82891 11381 ft 350 kts 98°
2026-05-07 22:43 49.10007 -122.79193 11893 ft 355 kts 98°
2026-05-07 22:43 49.09637 -122.75442 12420 ft 359 kts 98°
2026-05-07 22:43 49.09258 -122.71651 12951 ft 364 kts 98°
2026-05-07 22:43 49.08879 -122.67864 13465 ft 368 kts 98°
2026-05-07 22:44 49.08490 -122.63971 13959 ft 373 kts 98°
2026-05-07 22:44 49.08094 -122.60037 14423 ft 377 kts 98°
2026-05-07 22:44 49.07691 -122.56062 14914 ft 380 kts 98°
2026-05-07 22:44 49.07285 -122.52050 15361 ft 385 kts 98°
2026-05-07 22:45 49.06871 -122.48003 15832 ft 388 kts 98°
2026-05-07 22:45 49.06455 -122.43917 16319 ft 391 kts 98°
2026-05-07 22:45 49.06033 -122.39792 16771 ft 395 kts 98°
2026-05-07 22:45 49.05607 -122.35635 17224 ft 399 kts 98°
2026-05-07 22:46 49.05175 -122.31430 17664 ft 403 kts 98°
2026-05-07 22:46 49.04738 -122.27194 18109 ft 407 kts 98°
2026-05-07 22:46 49.04292 -122.22917 18551 ft 410 kts 98°
2026-05-07 22:46 49.03847 -122.18611 18936 ft 413 kts 98°
2026-05-07 22:47 49.03395 -122.14267 19326 ft 416 kts 98°
2026-05-07 22:47 49.02936 -122.09895 19719 ft 420 kts 98°
2026-05-07 22:47 49.02469 -122.05494 20102 ft 423 kts 98°
2026-05-07 22:47 49.02004 -122.01107 20487 ft 426 kts 98°
2026-05-07 22:48 49.01532 -121.96644 20881 ft 429 kts 98°
2026-05-07 22:48 49.01051 -121.92143 21259 ft 431 kts 98°
2026-05-07 22:48 49.00575 -121.87612 21627 ft 434 kts 98°
2026-05-07 22:48 49.00102 -121.83053 21968 ft 437 kts 98°
2026-05-07 22:49 48.99622 -121.78482 22329 ft 439 kts 98°
2026-05-07 22:49 48.99129 -121.73882 22665 ft 442 kts 98°
2026-05-07 22:49 48.98619 -121.69252 22985 ft 445 kts 98°
2026-05-07 22:49 48.98112 -121.64591 23329 ft 448 kts 98°
2026-05-07 22:50 48.97604 -121.59904 23652 ft 451 kts 98°
2026-05-07 22:50 48.97090 -121.55185 23912 ft 453 kts 98°
2026-05-07 22:50 48.96580 -121.50427 24189 ft 455 kts 97°
2026-05-07 22:50 48.96325 -121.45617 24456 ft 456 kts 91°
2026-05-07 22:51 48.96193 -121.40789 24686 ft 458 kts 91°
2026-05-07 22:51 48.96066 -121.35934 24876 ft 461 kts 90°
2026-05-07 22:51 48.95980 -121.32699 24984 ft 463 kts 90°
2026-05-07 22:51 48.95794 -121.26127 25224 ft 466 kts 91°
2026-05-07 22:52 48.95697 -121.22856 25346 ft 468 kts 91°
2026-05-07 22:52 48.95549 -121.17902 25520 ft 470 kts 91°
2026-05-07 22:52 48.95399 -121.12924 25692 ft 471 kts 90°
2026-05-07 22:52 48.95254 -121.07935 25898 ft 473 kts 91°
2026-05-07 22:53 48.95099 -121.02933 26088 ft 474 kts 91°
2026-05-07 22:53 48.94945 -120.97913 26255 ft 476 kts 91°
2026-05-07 22:53 48.94793 -120.92869 26435 ft 477 kts 90°
2026-05-07 22:53 48.94639 -120.87817 26636 ft 479 kts 91°
2026-05-07 22:54 48.94477 -120.82752 26821 ft 481 kts 90°
2026-05-07 22:54 48.94304 -120.77650 26999 ft 484 kts 90°
2026-05-07 22:54 48.94131 -120.72528 27145 ft 486 kts 91°
2026-05-07 22:54 48.93964 -120.67392 27304 ft 487 kts 90°
2026-05-07 22:55 48.93789 -120.62234 27479 ft 488 kts 91°
2026-05-07 22:55 48.93617 -120.57068 27639 ft 490 kts 90°
2026-05-07 22:55 48.93440 -120.51884 27781 ft 491 kts 90°
2026-05-07 22:55 48.93253 -120.46700 27911 ft 492 kts 91°
2026-05-07 22:56 48.93077 -120.41557 28070 ft 494 kts 90°
2026-05-07 22:56 48.92891 -120.36328 28230 ft 495 kts 91°
2026-05-07 22:56 48.92690 -120.31093 28390 ft 497 kts 91°
2026-05-07 22:56 48.92485 -120.25839 28526 ft 498 kts 91°
2026-05-07 22:57 48.92292 -120.20576 28662 ft 500 kts 90°
2026-05-07 22:57 48.91755 -120.09996 28903 ft 505 kts 98°
2026-05-07 22:57 48.90844 -120.04832 29044 ft 508 kts 110°
2026-05-07 22:58 48.89294 -120.00007 29185 ft 509 kts 122°
2026-05-07 22:58 48.87208 -119.95672 29306 ft 509 kts 130°
2026-05-07 22:58 48.84944 -119.91531 29423 ft 510 kts 131°
2026-05-07 22:58 48.82661 -119.87405 29547 ft 511 kts 131°
2026-05-07 22:59 48.80391 -119.83244 29684 ft 512 kts 131°
2026-05-07 22:59 48.78131 -119.79067 29834 ft 512 kts 130°
2026-05-07 22:59 48.75877 -119.74892 30016 ft 512 kts 131°
2026-05-07 22:59 48.73612 -119.70730 30135 ft 512 kts 131°
2026-05-07 23:00 48.71348 -119.66561 30223 ft 512 kts 130°
2026-05-07 23:00 48.69096 -119.62393 30368 ft 512 kts 130°
2026-05-07 23:00 48.66843 -119.58222 30546 ft 511 kts 131°
2026-05-07 23:00 48.64590 -119.54075 30673 ft 511 kts 131°
2026-05-07 23:01 48.62326 -119.49920 30787 ft 512 kts 131°
2026-05-07 23:01 48.60054 -119.45759 30904 ft 513 kts 131°
2026-05-07 23:01 48.57784 -119.41603 31048 ft 513 kts 131°
2026-05-07 23:01 48.55509 -119.37452 31181 ft 513 kts 131°
2026-05-07 23:02 48.53252 -119.33361 31288 ft 514 kts 131°
2026-05-07 23:02 48.50965 -119.29221 31406 ft 514 kts 131°
2026-05-07 23:02 48.48676 -119.25075 31544 ft 514 kts 131°
2026-05-07 23:02 48.46390 -119.20934 31682 ft 514 kts 131°
2026-05-07 23:03 48.44101 -119.16797 31804 ft 514 kts 130°
2026-05-07 23:03 48.41816 -119.12662 31922 ft 513 kts 130°
2026-05-07 23:03 48.39535 -119.08523 32038 ft 514 kts 130°
2026-05-07 23:03 48.37250 -119.04387 32172 ft 514 kts 130°
2026-05-07 23:04 48.34964 -119.00262 32301 ft 513 kts 131°
2026-05-07 23:04 48.30386 -118.92051 32473 ft 513 kts 131°
2026-05-07 23:04 48.28089 -118.87948 32575 ft 513 kts 130°
2026-05-07 23:05 48.25795 -118.83833 32677 ft 514 kts 130°
2026-05-07 23:05 48.23497 -118.79720 32782 ft 514 kts 130°
2026-05-07 23:05 48.21199 -118.75613 32898 ft 514 kts 130°
2026-05-07 23:05 48.18893 -118.71518 33018 ft 514 kts 130°
2026-05-07 23:06 48.16583 -118.67428 33136 ft 514 kts 131°
2026-05-07 23:06 48.14280 -118.63337 33244 ft 514 kts 131°
2026-05-07 23:06 48.11972 -118.59250 33381 ft 514 kts 130°
2026-05-07 23:06 48.09663 -118.55175 33502 ft 514 kts 131°
2026-05-07 23:07 48.07350 -118.51088 33588 ft 515 kts 130°
2026-05-07 23:07 48.05033 -118.46995 33690 ft 515 kts 131°
2026-05-07 23:07 48.02717 -118.42920 33802 ft 515 kts 131°
2026-05-07 23:07 48.00427 -118.38897 33916 ft 515 kts 131°
2026-05-07 23:08 47.98108 -118.34830 34005 ft 515 kts 131°
2026-05-07 23:08 47.93463 -118.26671 34127 ft 516 kts 131°
2026-05-07 23:09 47.89517 -118.19778 34187 ft 517 kts 131°
2026-05-07 23:09 47.84849 -118.11631 34369 ft 517 kts 130°
2026-05-07 23:10 47.80167 -118.03483 34455 ft 518 kts 131°
2026-05-07 23:10 47.75465 -117.95339 34652 ft 519 kts 131°
2026-05-07 23:10 47.73116 -117.91274 34754 ft 518 kts 131°
2026-05-07 23:11 47.70763 -117.87219 34853 ft 518 kts 131°
2026-05-07 23:11 47.66060 -117.79149 35035 ft 516 kts 131°
2026-05-07 23:12 47.61371 -117.71108 35048 ft 515 kts 131°
2026-05-07 23:12 47.56666 -117.63104 35032 ft 514 kts 133°
2026-05-07 23:13 47.51685 -117.55590 35028 ft 514 kts 136°
2026-05-07 23:13 47.46630 -117.48090 35025 ft 515 kts 136°
2026-05-07 23:14 47.41572 -117.40593 35024 ft 515 kts 136°
2026-05-07 23:14 47.36513 -117.33115 35024 ft 515 kts 136°
2026-05-07 23:15 47.31435 -117.25639 35030 ft 515 kts 136°
2026-05-07 23:15 47.26390 -117.18230 35040 ft 515 kts 136°
2026-05-07 23:16 47.21311 -117.10796 35040 ft 515 kts 136°
2026-05-07 23:16 47.16230 -117.03381 35052 ft 515 kts 136°
2026-05-07 23:17 47.11156 -116.95950 35044 ft 515 kts 136°
2026-05-07 23:17 47.06059 -116.88539 35035 ft 515 kts 136°
2026-05-07 23:18 47.00961 -116.81163 35041 ft 515 kts 136°
2026-05-07 23:18 46.95856 -116.73790 35025 ft 516 kts 136°
2026-05-07 23:19 46.90729 -116.66415 35027 ft 518 kts 136°
2026-05-07 23:19 46.85581 -116.59025 35000 ft 519 kts 136°
2026-05-07 23:20 46.80421 -116.51631 34987 ft 519 kts 136°
2026-05-07 23:20 46.75292 -116.44310 34986 ft 519 kts 136°
2026-05-07 23:21 46.70124 -116.36959 34953 ft 519 kts 136°
2026-05-07 23:21 46.64949 -116.29606 34961 ft 520 kts 136°
2026-05-07 23:22 46.59762 -116.22276 34955 ft 520 kts 136°
2026-05-07 23:22 46.54579 -116.14946 34947 ft 519 kts 136°
2026-05-07 23:23 46.49386 -116.07654 34952 ft 519 kts 136°
2026-05-07 23:23 46.44189 -116.00361 34939 ft 519 kts 136°
2026-05-07 23:24 46.39002 -115.93083 34938 ft 519 kts 136°
2026-05-07 23:24 46.33799 -115.85823 34935 ft 519 kts 136°
2026-05-07 23:25 46.28598 -115.78594 34923 ft 519 kts 136°
2026-05-07 23:25 46.23388 -115.71360 34931 ft 520 kts 136°
2026-05-07 23:26 46.18169 -115.64138 34938 ft 520 kts 136°
2026-05-07 23:26 46.12946 -115.56926 34924 ft 519 kts 136°
2026-05-07 23:27 46.05075 -115.46134 34926 ft 520 kts 136°
2026-05-07 23:27 45.99881 -115.39021 34927 ft 519 kts 136°
2026-05-07 23:28 45.94637 -115.31848 34937 ft 521 kts 136°
2026-05-07 23:28 45.89393 -115.24664 34935 ft 521 kts 136°
2026-05-07 23:29 45.84149 -115.17519 34924 ft 521 kts 136°
2026-05-07 23:29 45.78867 -115.10361 34923 ft 523 kts 136°
2026-05-07 23:30 45.73570 -115.03204 34908 ft 523 kts 136°
2026-05-07 23:30 45.68275 -114.96068 34927 ft 521 kts 136°
2026-05-07 23:31 45.62983 -114.88947 34922 ft 523 kts 136°
2026-05-07 23:31 45.57678 -114.81828 34914 ft 524 kts 136°
2026-05-07 23:32 45.52362 -114.74721 34906 ft 524 kts 136°
2026-05-07 23:32 45.47038 -114.67620 34902 ft 524 kts 136°
2026-05-07 23:33 45.41702 -114.60520 34897 ft 525 kts 136°
2026-05-07 23:33 45.36367 -114.53443 34895 ft 523 kts 136°
2026-05-07 23:34 45.31075 -114.46443 34892 ft 523 kts 136°
2026-05-07 23:34 45.25738 -114.39396 34887 ft 523 kts 136°
2026-05-07 23:35 45.20410 -114.32387 34871 ft 522 kts 136°
2026-05-07 23:35 45.15090 -114.25391 34871 ft 520 kts 136°
2026-05-07 23:36 45.09753 -114.18427 34919 ft 524 kts 136°
2026-05-07 23:36 45.04390 -114.11410 34928 ft 524 kts 136°
2026-05-07 23:37 44.99336 -114.04011 34864 ft 522 kts 129°
2026-05-07 23:37 44.94552 -113.96280 34868 ft 524 kts 129°
2026-05-07 23:38 44.89754 -113.88543 34862 ft 523 kts 129°
2026-05-07 23:38 44.85767 -113.82143 34834 ft 522 kts 129°
2026-05-07 23:39 44.80965 -113.74458 34843 ft 523 kts 129°
2026-05-07 23:39 44.76154 -113.66787 34854 ft 522 kts 129°
2026-05-07 23:40 44.71348 -113.59131 34851 ft 523 kts 129°
2026-05-07 23:40 44.66525 -113.51469 34862 ft 523 kts 129°
2026-05-07 23:41 44.61702 -113.43835 34861 ft 523 kts 129°
2026-05-07 23:41 44.56871 -113.36218 34871 ft 522 kts 129°
2026-05-07 23:42 44.52025 -113.28617 34877 ft 523 kts 129°
2026-05-07 23:42 44.47183 -113.21016 34875 ft 523 kts 129°
2026-05-07 23:43 44.42340 -113.13423 34871 ft 523 kts 129°
2026-05-07 23:43 44.37514 -113.05884 34877 ft 523 kts 129°
2026-05-07 23:44 44.32662 -112.98307 34906 ft 523 kts 129°
2026-05-07 23:44 44.27817 -112.90765 34869 ft 521 kts 129°
2026-05-07 23:45 44.22964 -112.83243 34868 ft 521 kts 129°
2026-05-07 23:45 44.18118 -112.75734 34868 ft 521 kts 130°
2026-05-07 23:46 44.13254 -112.68257 34838 ft 520 kts 129°
2026-05-07 23:46 44.08393 -112.60789 34840 ft 521 kts 130°
2026-05-07 23:47 44.03523 -112.53327 34822 ft 522 kts 130°
2026-05-07 23:47 43.98634 -112.45854 34816 ft 522 kts 130°
2026-05-07 23:48 43.93783 -112.38452 34819 ft 522 kts 130°
2026-05-07 23:48 43.88891 -112.31010 34828 ft 522 kts 130°
2026-05-07 23:49 43.83995 -112.23574 34853 ft 522 kts 130°
2026-05-07 23:49 43.79084 -112.16157 34880 ft 522 kts 130°
2026-05-07 23:50 43.74180 -112.08753 34907 ft 522 kts 130°
2026-05-07 23:50 43.69274 -112.01360 34920 ft 522 kts 130°
2026-05-07 23:51 43.64363 -111.93964 34922 ft 522 kts 130°
2026-05-07 23:51 43.59448 -111.86596 34908 ft 522 kts 131°
2026-05-07 23:52 43.54518 -111.79256 34938 ft 522 kts 130°
2026-05-07 23:52 43.49598 -111.71904 34927 ft 521 kts 130°
2026-05-07 23:53 43.44674 -111.64588 34915 ft 521 kts 131°
2026-05-07 23:53 43.39745 -111.57297 34907 ft 521 kts 131°
2026-05-07 23:54 43.34844 -111.50051 34909 ft 520 kts 131°
2026-05-07 23:54 43.29908 -111.42774 34909 ft 522 kts 131°
2026-05-07 23:55 43.24951 -111.35470 34922 ft 523 kts 131°
2026-05-07 23:55 43.19985 -111.28180 34957 ft 522 kts 131°
2026-05-07 23:56 43.15059 -111.20974 34918 ft 517 kts 131°
2026-05-07 23:56 43.10125 -111.13773 34925 ft 519 kts 131°
2026-05-07 23:57 43.05178 -111.06582 34923 ft 519 kts 132°
2026-05-07 23:57 43.00221 -110.99392 34922 ft 522 kts 132°
2026-05-07 23:58 42.95225 -110.92162 34933 ft 524 kts 131°
2026-05-07 23:58 42.90221 -110.84934 34909 ft 522 kts 132°
2026-05-07 23:59 42.87723 -110.81327 35011 ft 523 kts 131°
2026-05-07 23:59 42.85230 -110.77729 35048 ft 520 kts 132°
2026-05-07 23:59 42.80327 -110.70687 35021 ft 515 kts 132°
2026-05-08 00:00 42.75384 -110.63616 35015 ft 516 kts 131°
2026-05-08 00:00 42.70453 -110.56534 34923 ft 517 kts 132°
2026-05-08 00:01 42.65451 -110.49406 34975 ft 522 kts 132°
2026-05-08 00:01 42.60461 -110.42297 35009 ft 515 kts 132°
2026-05-08 00:02 42.55517 -110.35286 35015 ft 516 kts 132°
2026-05-08 00:02 42.50533 -110.28225 35040 ft 519 kts 133°
2026-05-08 00:03 42.45540 -110.21173 35039 ft 519 kts 133°
2026-05-08 00:03 42.40574 -110.14169 34997 ft 520 kts 133°
2026-05-08 00:04 42.35560 -110.07133 34999 ft 519 kts 133°
2026-05-08 00:04 42.30554 -110.00117 34946 ft 519 kts 133°
2026-05-08 00:05 42.25542 -109.93103 34872 ft 519 kts 133°
2026-05-08 00:05 42.20508 -109.86081 34875 ft 521 kts 133°
2026-05-08 00:06 42.15468 -109.79061 34912 ft 520 kts 134°
2026-05-08 00:06 42.10471 -109.72116 34891 ft 516 kts 134°
2026-05-08 00:07 42.05464 -109.65166 34881 ft 518 kts 134°
2026-05-08 00:07 42.00431 -109.58218 34889 ft 519 kts 134°
2026-05-08 00:08 41.95404 -109.51258 34897 ft 519 kts 134°
2026-05-08 00:08 41.90358 -109.44314 34907 ft 519 kts 134°
2026-05-08 00:09 41.85326 -109.37414 34905 ft 516 kts 134°
2026-05-08 00:09 41.80299 -109.30539 34949 ft 516 kts 134°
2026-05-08 00:10 41.75298 -109.23720 34986 ft 517 kts 134°
2026-05-08 00:10 41.70240 -109.16848 35041 ft 518 kts 135°
2026-05-08 00:11 41.65185 -109.09989 35095 ft 517 kts 135°
2026-05-08 00:11 41.60157 -109.03166 35056 ft 516 kts 134°
2026-05-08 00:12 41.55552 -108.95798 35069 ft 517 kts 127°
2026-05-08 00:12 41.51111 -108.88257 35029 ft 517 kts 128°
2026-05-08 00:13 41.46633 -108.80745 34919 ft 517 kts 128°
2026-05-08 00:13 41.42162 -108.73240 34933 ft 516 kts 128°
2026-05-08 00:14 41.37723 -108.65805 34915 ft 516 kts 128°
2026-05-08 00:14 41.33248 -108.58346 34913 ft 515 kts 128°
2026-05-08 00:15 41.28752 -108.50916 34909 ft 516 kts 128°
2026-05-08 00:15 41.24260 -108.43474 34915 ft 516 kts 128°
2026-05-08 00:16 41.19783 -108.36035 34909 ft 514 kts 128°
2026-05-08 00:16 41.15319 -108.28621 34901 ft 514 kts 128°
2026-05-08 00:17 41.10846 -108.21203 34908 ft 516 kts 128°
2026-05-08 00:17 41.06339 -108.13782 34911 ft 516 kts 129°
2026-05-08 00:18 41.01817 -108.06385 34906 ft 516 kts 128°
2026-05-08 00:18 40.97312 -107.98989 34890 ft 516 kts 129°
2026-05-08 00:19 40.92808 -107.91644 34915 ft 517 kts 129°
2026-05-08 00:19 40.88269 -107.84286 34920 ft 517 kts 129°
2026-05-08 00:20 40.83736 -107.76911 34965 ft 516 kts 129°
2026-05-08 00:20 40.79197 -107.69568 34969 ft 516 kts 129°
2026-05-08 00:21 40.74652 -107.62225 34992 ft 516 kts 129°
2026-05-08 00:21 40.70123 -107.54903 35022 ft 516 kts 129°
2026-05-08 00:22 40.65575 -107.47585 35044 ft 516 kts 129°
2026-05-08 00:22 40.61032 -107.40275 35045 ft 515 kts 129°
2026-05-08 00:23 40.56489 -107.32991 35081 ft 514 kts 129°
2026-05-08 00:23 40.51977 -107.25777 35083 ft 514 kts 129°
2026-05-08 00:24 40.47434 -107.18532 35066 ft 514 kts 129°
2026-05-08 00:24 40.42884 -107.11284 35080 ft 514 kts 129°
2026-05-08 00:25 40.38329 -107.04062 35091 ft 514 kts 129°
2026-05-08 00:25 40.33789 -106.96867 35058 ft 510 kts 129°
2026-05-08 00:26 40.29256 -106.89703 35021 ft 510 kts 129°
2026-05-08 00:26 40.24732 -106.82571 35046 ft 509 kts 129°
2026-05-08 00:27 40.20204 -106.75450 35037 ft 509 kts 129°
2026-05-08 00:27 40.16439 -106.69543 35052 ft 509 kts 129°
2026-05-08 00:28 40.11900 -106.62431 35022 ft 509 kts 129°
2026-05-08 00:28 40.06618 -106.54185 35035 ft 509 kts 129°
2026-05-08 00:29 40.02812 -106.48245 35033 ft 508 kts 129°
2026-05-08 00:29 39.98206 -106.41258 35058 ft 509 kts 131°
2026-05-08 00:30 39.93502 -106.34359 35065 ft 507 kts 131°
2026-05-08 00:30 39.88869 -106.27578 35058 ft 504 kts 131°
2026-05-08 00:31 39.84204 -106.20762 35074 ft 504 kts 132°
2026-05-08 00:31 39.79534 -106.13961 35082 ft 504 kts 132°
2026-05-08 00:32 39.74864 -106.07175 35093 ft 503 kts 131°
2026-05-08 00:32 39.70208 -106.00416 35093 ft 502 kts 131°
2026-05-08 00:33 39.65549 -105.93673 35102 ft 501 kts 132°
2026-05-08 00:33 39.60893 -105.86949 35103 ft 501 kts 132°
2026-05-08 00:34 39.56227 -105.80221 35111 ft 501 kts 132°
2026-05-08 00:34 39.51624 -105.73601 35088 ft 501 kts 132°
2026-05-08 00:35 39.46951 -105.66897 35088 ft 501 kts 132°
2026-05-08 00:35 39.42272 -105.60199 35083 ft 502 kts 133°
2026-05-08 00:36 39.37574 -105.53490 35055 ft 503 kts 133°
2026-05-08 00:36 39.32902 -105.46824 35022 ft 503 kts 133°
2026-05-08 00:37 39.28201 -105.40137 35018 ft 503 kts 133°
2026-05-08 00:38 39.21141 -105.30124 34974 ft 503 kts 133°
2026-05-08 00:38 39.16421 -105.23445 34992 ft 504 kts 133°
2026-05-08 00:39 39.11699 -105.16770 34971 ft 504 kts 133°
2026-05-08 00:39 39.06962 -105.10096 34965 ft 504 kts 133°
2026-05-08 00:40 39.01789 -105.04077 34939 ft 501 kts 147°
2026-05-08 00:40 38.95985 -104.99143 35012 ft 500 kts 149°
2026-05-08 00:41 38.90177 -104.94235 35023 ft 500 kts 149°
2026-05-08 00:41 38.84419 -104.89328 34988 ft 499 kts 148°
2026-05-08 00:42 38.78656 -104.84427 35027 ft 495 kts 148°
2026-05-08 00:42 38.72902 -104.79544 35021 ft 496 kts 148°
2026-05-08 00:43 38.67146 -104.74669 34798 ft 496 kts 148°
2026-05-08 00:43 38.61384 -104.69801 34736 ft 494 kts 148°
2026-05-08 00:44 38.55663 -104.64978 34803 ft 493 kts 148°
2026-05-08 00:44 38.52800 -104.62566 34934 ft 493 kts 148°
2026-05-08 00:44 38.49938 -104.60154 34941 ft 493 kts 148°
2026-05-08 00:45 38.44205 -104.55338 34934 ft 493 kts 148°
2026-05-08 00:45 38.38494 -104.50555 34951 ft 489 kts 148°
2026-05-08 00:46 38.32806 -104.45792 34960 ft 489 kts 148°
2026-05-08 00:46 38.27433 -104.40481 34959 ft 491 kts 136°
2026-05-08 00:47 38.22634 -104.34296 34933 ft 491 kts 134°
2026-05-08 00:47 38.17867 -104.28135 34931 ft 487 kts 135°
2026-05-08 00:48 38.13113 -104.22048 34922 ft 488 kts 135°
2026-05-08 00:48 38.08326 -104.15937 34910 ft 489 kts 135°
2026-05-08 00:49 38.03534 -104.09832 34877 ft 487 kts 135°
2026-05-08 00:49 37.98767 -104.03763 34893 ft 484 kts 135°
2026-05-08 00:50 37.94008 -103.97725 34896 ft 484 kts 135°
2026-05-08 00:50 37.89244 -103.91685 34892 ft 484 kts 135°
2026-05-08 00:51 37.84480 -103.85658 34902 ft 484 kts 135°
2026-05-08 00:51 37.79700 -103.79627 34895 ft 486 kts 135°
2026-05-08 00:52 37.74912 -103.73597 34890 ft 486 kts 136°
2026-05-08 00:52 37.70116 -103.67570 34888 ft 486 kts 136°
2026-05-08 00:53 37.65351 -103.61589 34891 ft 486 kts 136°
2026-05-08 00:53 37.60545 -103.55570 34895 ft 487 kts 136°
2026-05-08 00:54 37.55746 -103.49568 34898 ft 486 kts 136°
2026-05-08 00:54 37.50954 -103.43588 34897 ft 484 kts 136°
2026-05-08 00:55 37.46161 -103.37625 34898 ft 484 kts 136°
2026-05-08 00:55 37.41370 -103.31671 34890 ft 482 kts 136°
2026-05-08 00:56 37.36631 -103.25790 34895 ft 477 kts 136°
2026-05-08 00:56 37.31894 -103.19927 34901 ft 478 kts 136°
2026-05-08 00:57 37.27181 -103.14101 34898 ft 478 kts 136°
2026-05-08 00:57 37.22431 -103.08233 34887 ft 479 kts 137°
2026-05-08 00:58 37.17680 -103.02387 34898 ft 478 kts 137°
2026-05-08 00:58 37.12930 -102.96549 34899 ft 478 kts 137°
2026-05-08 00:59 37.08182 -102.90721 34893 ft 478 kts 137°
2026-05-08 00:59 37.03428 -102.84899 34893 ft 478 kts 137°
2026-05-08 01:00 36.98668 -102.79086 34892 ft 477 kts 137°
2026-05-08 01:00 36.93946 -102.73328 34897 ft 477 kts 138°
2026-05-08 01:01 36.89200 -102.67549 34900 ft 477 kts 138°
2026-05-08 01:01 36.84449 -102.61772 34897 ft 476 kts 138°
2026-05-08 01:02 36.79669 -102.55975 34880 ft 476 kts 139°
2026-05-08 01:02 36.74965 -102.50277 34896 ft 473 kts 139°
2026-05-08 01:03 36.70234 -102.44560 34910 ft 474 kts 139°
2026-05-08 01:03 36.65500 -102.38848 34911 ft 474 kts 139°
2026-05-08 01:04 36.60755 -102.33128 34907 ft 475 kts 139°
2026-05-08 01:04 36.56008 -102.27421 34911 ft 474 kts 140°
2026-05-08 01:05 36.51270 -102.21737 34922 ft 473 kts 140°
2026-05-08 01:05 36.46524 -102.16056 34922 ft 474 kts 140°
2026-05-08 01:06 36.44095 -102.13149 34922 ft 474 kts 140°
2026-05-08 01:06 36.39349 -102.07475 34927 ft 474 kts 140°
2026-05-08 01:07 36.34606 -102.01814 34911 ft 472 kts 141°
2026-05-08 01:07 36.29867 -101.96178 34926 ft 472 kts 141°
2026-05-08 01:08 36.25159 -101.90581 34926 ft 472 kts 141°
2026-05-08 01:08 36.20420 -101.84960 34928 ft 472 kts 141°
2026-05-08 01:09 36.15677 -101.79337 34907 ft 472 kts 142°
2026-05-08 01:09 36.10935 -101.73734 34920 ft 471 kts 142°
2026-05-08 01:10 36.06188 -101.68131 34928 ft 471 kts 142°
2026-05-08 01:10 36.01434 -101.62532 34929 ft 473 kts 143°
2026-05-08 01:11 35.96666 -101.56928 34930 ft 473 kts 143°
2026-05-08 01:11 35.91899 -101.51331 34915 ft 473 kts 144°
2026-05-08 01:12 35.87124 -101.45737 34927 ft 473 kts 144°
2026-05-08 01:12 35.82374 -101.40180 34979 ft 473 kts 144°
2026-05-08 01:13 35.77679 -101.34451 34989 ft 475 kts 142°
2026-05-08 01:13 35.73060 -101.28658 34988 ft 474 kts 143°
2026-05-08 01:14 35.68429 -101.22869 34972 ft 474 kts 144°
2026-05-08 01:14 35.63836 -101.17142 34994 ft 473 kts 144°
2026-05-08 01:15 35.59213 -101.11386 35008 ft 473 kts 144°
2026-05-08 01:15 35.54585 -101.05636 35006 ft 473 kts 144°
2026-05-08 01:16 35.49956 -100.99892 35005 ft 473 kts 144°
2026-05-08 01:16 35.45333 -100.94162 34993 ft 472 kts 144°
2026-05-08 01:17 35.41456 -100.89369 34981 ft 472 kts 144°
2026-05-08 01:17 35.36855 -100.83690 34966 ft 472 kts 144°
2026-05-08 01:18 35.32223 -100.77980 34957 ft 472 kts 144°
2026-05-08 01:18 35.27589 -100.72278 34922 ft 472 kts 144°
2026-05-08 01:19 35.22960 -100.66595 34945 ft 471 kts 145°
2026-05-08 01:19 35.18335 -100.60922 34952 ft 471 kts 145°
2026-05-08 01:20 35.13709 -100.55260 34961 ft 472 kts 145°
2026-05-08 01:20 35.09055 -100.49573 34965 ft 473 kts 145°
2026-05-08 01:21 35.04397 -100.43891 34942 ft 473 kts 146°
2026-05-08 01:21 34.99746 -100.38220 34960 ft 472 kts 146°
2026-05-08 01:22 34.95093 -100.32562 34959 ft 472 kts 146°
2026-05-08 01:22 34.90436 -100.26919 34966 ft 472 kts 146°
2026-05-08 01:23 34.85874 -100.21394 34960 ft 472 kts 146°
2026-05-08 01:23 34.81490 -100.16091 34930 ft 473 kts 147°
2026-05-08 01:24 34.76831 -100.10463 34953 ft 470 kts 147°
2026-05-08 01:24 34.72182 -100.04858 34959 ft 471 kts 147°
2026-05-08 01:25 34.67525 -99.99252 34957 ft 471 kts 147°
2026-05-08 01:25 34.62869 -99.93655 34954 ft 471 kts 147°
2026-05-08 01:26 34.58210 -99.88067 34922 ft 471 kts 147°
2026-05-08 01:26 34.53565 -99.82504 34937 ft 468 kts 148°
2026-05-08 01:27 34.48916 -99.76948 34953 ft 469 kts 147°
2026-05-08 01:27 34.44272 -99.71402 34952 ft 469 kts 148°
2026-05-08 01:28 34.39654 -99.65898 34958 ft 468 kts 148°
2026-05-08 01:28 34.35006 -99.60370 34942 ft 469 kts 148°
2026-05-08 01:28 34.32790 -99.57421 34949 ft 482 kts 140°
2026-05-08 01:29 34.30910 -99.53987 34959 ft 495 kts 131°
2026-05-08 01:29 34.27506 -99.46708 34970 ft 497 kts 130°
2026-05-08 01:30 34.24096 -99.39454 34970 ft 495 kts 131°
2026-05-08 01:30 34.20664 -99.32254 34978 ft 493 kts 131°
2026-05-08 01:31 34.17243 -99.25105 34983 ft 491 kts 131°
2026-05-08 01:31 34.13822 -99.17972 34990 ft 498 kts 131°
2026-05-08 01:31 34.12090 -99.14355 34659 ft 498 kts 131°
2026-05-08 01:32 34.10359 -99.10740 34089 ft 497 kts 131°
2026-05-08 01:32 34.08609 -99.07093 33467 ft 495 kts 131°
2026-05-08 01:32 34.06901 -99.03546 32880 ft 495 kts 131°
2026-05-08 01:32 34.05171 -98.99955 32319 ft 495 kts 131°
2026-05-08 01:33 34.03447 -98.96376 31779 ft 494 kts 131°
2026-05-08 01:33 34.01721 -98.92802 31244 ft 493 kts 130°
2026-05-08 01:33 33.99999 -98.89238 30736 ft 491 kts 130°
2026-05-08 01:33 33.98285 -98.85690 30241 ft 489 kts 130°
2026-05-08 01:34 33.96570 -98.82145 29659 ft 488 kts 130°
2026-05-08 01:34 33.94867 -98.78629 29069 ft 487 kts 129°
2026-05-08 01:34 33.93160 -98.75110 28515 ft 485 kts 129°
2026-05-08 01:34 33.91464 -98.71622 27994 ft 482 kts 128°
2026-05-08 01:35 33.89778 -98.68149 27460 ft 479 kts 128°
2026-05-08 01:35 33.88094 -98.64696 26944 ft 476 kts 128°
2026-05-08 01:35 33.86409 -98.61274 26415 ft 474 kts 128°
2026-05-08 01:35 33.84729 -98.57873 25902 ft 472 kts 127°
2026-05-08 01:36 33.83103 -98.54582 25411 ft 469 kts 127°
2026-05-08 01:36 33.81512 -98.51352 24924 ft 467 kts 126°
2026-05-08 01:36 33.79875 -98.47994 24407 ft 465 kts 125°
2026-05-08 01:36 33.78246 -98.44645 23885 ft 463 kts 124°
2026-05-08 01:37 33.76618 -98.41308 23282 ft 461 kts 124°
2026-05-08 01:37 33.74997 -98.38003 22706 ft 457 kts 124°
2026-05-08 01:37 33.73415 -98.34777 22166 ft 452 kts 124°
2026-05-08 01:37 33.71830 -98.31541 21671 ft 447 kts 124°
2026-05-08 01:38 33.70267 -98.28344 21151 ft 442 kts 124°
2026-05-08 01:38 33.68717 -98.25178 20671 ft 436 kts 124°
2026-05-08 01:38 33.67187 -98.22060 20185 ft 430 kts 125°
2026-05-08 01:38 33.65680 -98.18990 19731 ft 424 kts 125°
2026-05-08 01:39 33.64188 -98.15958 19206 ft 420 kts 126°
2026-05-08 01:39 33.62706 -98.12957 18748 ft 415 kts 126°
2026-05-08 01:39 33.61238 -98.10001 18281 ft 410 kts 126°
2026-05-08 01:39 33.59782 -98.07077 17695 ft 406 kts 126°
2026-05-08 01:40 33.58340 -98.04183 17161 ft 402 kts 126°
2026-05-08 01:40 33.56915 -98.01324 16670 ft 397 kts 125°
2026-05-08 01:40 33.55509 -97.98502 16208 ft 391 kts 125°
2026-05-08 01:40 33.54121 -97.95720 15771 ft 386 kts 125°
2026-05-08 01:41 33.52750 -97.92976 15347 ft 381 kts 125°
2026-05-08 01:41 33.51398 -97.90272 14939 ft 376 kts 124°
2026-05-08 01:41 33.50064 -97.87595 14530 ft 371 kts 124°
2026-05-08 01:41 33.48767 -97.84991 14127 ft 367 kts 124°
2026-05-08 01:42 33.47464 -97.82379 13715 ft 363 kts 124°
2026-05-08 01:42 33.46177 -97.79796 13285 ft 360 kts 124°
2026-05-08 01:42 33.44879 -97.77198 12865 ft 357 kts 124°
2026-05-08 01:42 33.43625 -97.74690 12473 ft 354 kts 124°
2026-05-08 01:43 33.42363 -97.72167 12094 ft 351 kts 124°
2026-05-08 01:43 33.41115 -97.69667 11720 ft 348 kts 124°
2026-05-08 01:43 33.39878 -97.67194 11345 ft 345 kts 124°
2026-05-08 01:43 33.38646 -97.64738 10973 ft 342 kts 125°
2026-05-08 01:44 33.37309 -97.62429 10699 ft 333 kts 129°
2026-05-08 01:44 33.35962 -97.60233 10519 ft 321 kts 130°
2026-05-08 01:44 33.34667 -97.58130 10129 ft 311 kts 130°
2026-05-08 01:44 33.33391 -97.56060 9603 ft 308 kts 130°
2026-05-08 01:45 33.32119 -97.54004 9203 ft 306 kts 130°
2026-05-08 01:45 33.30860 -97.51971 8812 ft 303 kts 130°
2026-05-08 01:45 33.29615 -97.49959 8447 ft 300 kts 130°
2026-05-08 01:45 33.28380 -97.47962 8090 ft 298 kts 129°
2026-05-08 01:46 33.27285 -97.45864 7751 ft 299 kts 112°
2026-05-08 01:46 33.26915 -97.43423 7435 ft 299 kts 95°
2026-05-08 01:46 33.26819 -97.40947 7120 ft 298 kts 93°
2026-05-08 01:46 33.26736 -97.38486 6804 ft 296 kts 93°
2026-05-08 01:47 33.26636 -97.36035 6486 ft 295 kts 94°
2026-05-08 01:47 33.26525 -97.33602 6153 ft 292 kts 94°
2026-05-08 01:47 33.26408 -97.31211 5942 ft 283 kts 94°
2026-05-08 01:48 33.26175 -97.26689 5643 ft 263 kts 94°
2026-05-08 01:48 33.26059 -97.24527 5251 ft 259 kts 94°
2026-05-08 01:48 33.25823 -97.22452 4914 ft 251 kts 110°
2026-05-08 01:48 33.24937 -97.20734 4714 ft 245 kts 136°
2026-05-08 01:49 33.23456 -97.19762 4555 ft 247 kts 170°
2026-05-08 01:49 33.21761 -97.19898 4419 ft 247 kts 195°
2026-05-08 01:49 33.20124 -97.20511 4288 ft 246 kts 198°
2026-05-08 01:49 33.18388 -97.21012 4199 ft 268 kts 180°
2026-05-08 01:50 33.16598 -97.20489 4047 ft 265 kts 150°
2026-05-08 01:50 33.15237 -97.19074 3914 ft 263 kts 130°
2026-05-08 01:50 33.14112 -97.17360 3797 ft 262 kts 128°
2026-05-08 01:50 33.12999 -97.15645 3662 ft 261 kts 128°
2026-05-08 01:51 33.11876 -97.13950 3403 ft 259 kts 129°
2026-05-08 01:51 33.10745 -97.12283 3090 ft 257 kts 129°
2026-05-08 01:51 33.09642 -97.10658 2988 ft 245 kts 129°
2026-05-08 01:51 33.08606 -97.09123 2977 ft 230 kts 129°
2026-05-08 01:52 33.07612 -97.07672 2986 ft 225 kts 130°
2026-05-08 01:52 33.06623 -97.06227 2996 ft 225 kts 130°
2026-05-08 01:52 33.05634 -97.04790 3001 ft 225 kts 130°
2026-05-08 01:52 33.04615 -97.03369 2997 ft 225 kts 136°
2026-05-08 01:53 33.03260 -97.02475 2882 ft 225 kts 166°
2026-05-08 01:53 33.01714 -97.02307 2608 ft 223 kts 181°
2026-05-08 01:53 33.00189 -97.02420 2298 ft 218 kts 183°
2026-05-08 01:53 32.98719 -97.02519 1989 ft 205 kts 181°
2026-05-08 01:54 32.97351 -97.02550 1766 ft 184 kts 180°
2026-05-08 01:54 32.96147 -97.02564 1515 ft 163 kts 179°
2026-05-08 01:54 32.95065 -97.02571 1285 ft 148 kts 179°
2026-05-08 01:54 32.94072 -97.02576 1086 ft 140 kts 180°
2026-05-08 01:55 32.93098 -97.02578 849 ft 140 kts 180°
2026-05-08 01:55 32.92122 -97.02599 736 ft 140 kts 181°
2026-05-08 01:55 32.91150 -97.02595 581 ft 138 kts 180°
2026-05-08 01:55 32.90299 -97.02594 581 ft 101 kts 186°
2026-05-08 01:56 32.89956 -97.02640 575 ft 2 kts 202°
2026-05-08 01:56 32.89923 -97.02673 579 ft 9 kts 224°
2026-05-08 01:56 32.89863 -97.02727 575 ft 13 kts 213°
2026-05-08 01:56 32.89780 -97.02781 576 ft 0 kts 207°
2026-05-08 01:57 32.89763 -97.02791 576 ft 8 kts 206°
2026-05-08 01:57 32.89684 -97.02802 577 ft 15 kts 182°
2026-05-08 01:57 32.89563 -97.02805 580 ft 20 kts 181°
2026-05-08 01:57 32.89427 -97.02806 579 ft 11 kts 183°
2026-05-08 01:58 32.89392 -97.02905 580 ft 18 kts 264°
2026-05-08 01:58 32.89395 -97.03074 581 ft 23 kts 269°
2026-05-08 01:58 32.89395 -97.03269 588 ft 11 kts 285°
2026-05-08 01:58 32.89475 -97.03317 591 ft 17 kts
2026-05-08 01:59 32.89615 -97.03316 591 ft 23 kts 359°
2026-05-08 01:59 32.89786 -97.03319 591 ft 27 kts 359°
2026-05-08 01:59 32.89966 -97.03323 591 ft 5 kts 302°
2026-05-08 01:59 32.89964 -97.03358 592 ft 9 kts 256°
2026-05-08 02:00 32.89952 -97.03453 592 ft 14 kts 272°
2026-05-08 02:00 32.89998 -97.03544 592 ft 3 kts 323°
2026-05-08 02:00 32.90011 -97.03583 592 ft 9 kts 232°
2026-05-08 02:00 32.89986 -97.03609 592 ft 1 kts 221°
2026-05-08 02:01 32.89982 -97.03613 592 ft 0 kts 218°